Pine Bluff, AR

5:48 PM CST on January 22, 2017 (GMT -0600)
Grider

Weather History for KPBF - May, 2014

Change the Weather History Date:

Monday, May 5, 2014

  Actual Average Record
Temperature  
Mean Temperature 72 °F 68 °F  
Max Temperature 85 °F 79 °F 94 °F (1943)
Min Temperature 58 °F 58 °F 41 °F (2013)
Degree Days  
Heating Degree Days 0 1  
Month to date heating degree days 15 6  
Since 1 July heating degree days 3422 2870  
Cooling Degree Days 7 5  
Month to date cooling degree days 14 21  
Year to date cooling degree days 68 108  
Growing Degree Days 20 (Base 50)    
Moisture  
Dew Point 49 °F    
Average Humidity 50    
Maximum Humidity 78    
Minimum Humidity 22    
Precipitation  
Precipitation 0.00 in 0.18 in 6.80 in (1905)
Month to date precipitation T 0.88  
Year to date precipitation 15.12 19.03  
Snow  
Snow 0.00 in 0.00 in - ()
Month to date snowfall 0.0 0.0  
Since 1 July snowfall 3.7 3.1  
Snow Depth 0.00 in    
Sea Level Pressure  
Sea Level Pressure 29.92 in    
Wind  
Wind Speed 11 mph (SSW)    
Max Wind Speed 20 mph    
Max Gust Speed 26 mph    
Visibility 10 miles    
Events      
T = Trace of Precipitation, MM = Missing Value Source: NWS Daily Summary

Daily Weather History Graph

Daily Weather History Graph

Search for Another Location

Airport or City:

Trip Planner

Search our weather history database for the weather conditions in past years. The results will help you decide how hot, cold, wet, or windy it might be!

Date:

Astronomy

May. 05, 2014 Rise Set
Actual Time 6:14 AM CDT 7:54 PM CDT
Civil Twilight 5:47 AM CDT 8:22 PM CDT
Nautical Twilight 5:14 AM CDT 8:54 PM CDT
Astronomical Twilight 4:40 AM CDT 9:29 PM CDT
Moon 11:33 AM CDT (5/5) 12:39 AM CDT (5/5)
Length of Visible Light 14h 34m
Length of Day
13h 40m
Waxing Crescent, 37% of the Moon is Illuminated
May 5
Waxing Crescent
May 6
First Quarter
May 14
Full
May 21
Last Quarter
May 28
New

Hourly Weather History & Observations

Time (CDT) Temp. Heat Index Dew Point Humidity Pressure Visibility Wind Dir Wind Speed Gust Speed Precip Events Conditions
12:53 AM 64.9 °F - 51.1 °F 61% 29.97 in 10.0 mi SSW 3.5 mph - N/A   Clear
1:53 AM 64.0 °F - 51.1 °F 63% 29.94 in 10.0 mi SSW 6.9 mph - N/A   Clear
2:53 AM 66.0 °F - 50.0 °F 56% 29.93 in 10.0 mi SSW 10.4 mph - N/A   Clear
3:53 AM 64.9 °F - 50.0 °F 58% 29.93 in 10.0 mi SW 8.1 mph - N/A   Clear
4:53 AM 64.0 °F - 50.0 °F 60% 29.94 in 10.0 mi SSW 9.2 mph - N/A   Clear
5:53 AM 62.1 °F - 48.9 °F 62% 29.95 in 10.0 mi SSW 6.9 mph - N/A   Clear
6:53 AM 57.9 °F - 50.0 °F 75% 29.98 in 10.0 mi SSW 4.6 mph - N/A   Clear
7:53 AM 64.9 °F - 48.9 °F 56% 29.98 in 10.0 mi SW 8.1 mph - N/A   Clear
8:53 AM 69.1 °F - 46.0 °F 44% 29.99 in 10.0 mi WSW 16.1 mph 20.7 mph N/A   Clear
9:53 AM 72.0 °F - 44.1 °F 37% 29.99 in 10.0 mi SW 10.4 mph 21.9 mph N/A   Clear
10:53 AM 75.0 °F - 43.0 °F 32% 29.98 in 10.0 mi SW 12.7 mph - N/A   Clear
11:53 AM 79.0 °F - 42.1 °F 27% 29.96 in 10.0 mi SW 15.0 mph 19.6 mph N/A   Clear
12:53 PM 82.4 °F - 39.2 °F 21% 29.95 in 10.0 mi SSW 15.0 mph 25.3 mph N/A   Clear
1:53 PM 82.9 °F - 45.0 °F 26% 29.92 in 10.0 mi South 16.1 mph 20.7 mph N/A   Clear
2:53 PM 84.0 °F - 45.0 °F 25% 29.89 in 10.0 mi SW 17.3 mph 23.0 mph N/A   Clear
3:53 PM 84.0 °F - 48.9 °F 29% 29.87 in 10.0 mi South 12.7 mph - N/A   Clear
4:53 PM 84.9 °F - 48.0 °F 28% 29.85 in 10.0 mi SSW 12.7 mph 24.2 mph N/A   Clear
5:53 PM 84.0 °F - 50.0 °F 31% 29.84 in 10.0 mi South 17.3 mph - N/A   Clear
6:53 PM 81.0 °F 80.4 °F 53.1 °F 38% 29.83 in 10.0 mi South 11.5 mph - N/A   Clear
7:53 PM 73.0 °F - 55.9 °F 55% 29.83 in 10.0 mi South 8.1 mph - N/A   Clear
8:53 PM 69.1 °F - 55.9 °F 63% 29.84 in 10.0 mi South 8.1 mph - N/A   Clear
9:53 PM 66.0 °F - 55.9 °F 70% 29.86 in 10.0 mi South 6.9 mph - N/A   Clear
10:53 PM 64.4 °F - 55.4 °F 73% 29.87 in 10.0 mi South 6.9 mph - N/A   Clear
11:53 PM 62.1 °F - 55.9 °F 80% 29.87 in 10.0 mi South 8.1 mph - N/A   Clear